STARLINK-3996

operational
NORAD ID: 52617 Int'l Des: 2022-052 Owner: SPXS Country: US Constellation: starlink
LEOCIRCULAR

Über STARLINK-3996

Beschreibung wird geladen...

Live-Position

3D-Globus wird geladen...

Nächste Überflüge

Höhenverlauf

Altitude vs Time

uPlot chart will show altitude changes over time

Zweizeiliger Elementsatz

1 52617U 22052V 25251.58485065 -.00000226 00000-0 38924-5 0 9990
2 52617 53.2189 6.6241 0001305 80.7477 279.3663 15.08843253183492
Epoch: 8. Sept. 2025 • Age: 11 hours

Aktueller Status

Höhe 541.7 km
Geschwindigkeit 7.59 km/s
Subsatellitenpunkt -6.38°S, 5.51°W
Startdatum 14. Mai 2022
Alter 3.3 years
Typ internet

Technische Details

Klassifizierung Payload
Masse 297.00 kg
Trockenmasse 275.00 kg
Gesamtmasse 297.00 kg
Länge 0.20 m
Durchmesser 2.80 m
Spannweite 9.00 m
Form Box + pan
Hersteller SPXS
Bus-Typ Starlink
Phasenstatus In Orbit
Besitzer/Staat SPXS/US

Große Konstellationen

Loading constellations...